Location: Ariel
(45.9570°N, 122.5700°W)
Time: 21:41:02
(UTC-07:00)

Vanguard 3 - Pass Details

Date: 27 August 2019
Orbit: 508 x 3263 km, 33.4° (Epoch: 14 September)

Event Time Altitude Azimuth Distance (km) Brightness Sun altitude
Rises 15:55:25 0° 226° (SW) 6,213 12.5 39.9°
Reaches altitude 10° 16:00:59 10° 216° (SW) 4,709 12.1 39.1°
Maximum altitude 16:10:07 25° 168° (SSE) 2,726 10.3 37.7°
Drops below altitude 10° 16:16:11 10° 115° (ESE) 3,031 9.9 36.8°
Sets 16:18:53 0° 102° (ESE) 3,670 10.1 36.3°
